Temp
13 13 14 14 14 14 15 15 16 16 16 16 16 17 17 17 17 17 17 17 17 17 17 17 17 17 17 16 16 16 16 16 16 17 17 17 16 16 13 13 13 13 12 12 12 11 11
13 13 14 14 14 14 15 15 16 16 16 17 17 17 17 17 17 17 17 17 17 17 17 17 17 17 16 15 16 16 16 16 17 17 17 16 16 16 14 13 13 12 12 11 11 11 10
13 13 13 14 14 14 15 15 15 16 16 16 17 17 17 17 17 17 17 16 16 17 17 16 17 17 16 16 16 16 16 16 16 17 16 16 16 15 14 12 12 12 13 11 9 9 10
12 13 13 13 14 14 15 15 15 16 16 16 17 17 17 17 17 16 16 16 16 16 16 16 16 16 16 15 16 15 16 16 16 16 16 16 15 15 14 12 12 11 11 13 9 8 10
13 13 13 13 14 14 14 15 15 16 16 16 16 16 17 17 16 16 16 17 17 16 16 16 16 15 16 15 15 15 16 16 16 16 15 15 15 13 12 11 11 9 13 12 12 6 7
12 13 13 13 13 14 14 15 15 15 16 16 16 17 17 17 16 16 16 16 16 15 15 15 15 15 15 15 15 15 15 15 15 15 15 14 14 9 7 10 12 13 13 11 11 8 6
12 13 13 13 13 14 14 14 15 15 16 16 17 17 17 17 16 16 16 16 15 15 14 15 15 14 14 14 14 14 15 15 15 14 13 11 11 11 12 10 10 10 11 11 9 6 7
12 13 13 12 13 13 14 14 15 15 16 16 16 17 17 17 16 16 16 15 15 15 14 14 14 14 14 14 14 14 14 14 14 12 11 11 12 9 7 9 10 10 10 9 8 6 7
12 12 12 12 13 13 13 14 15 15 16 16 16 16 16 16 16 16 16 15 15 14 13 13 13 13 13 14 13 13 14 13 12 11 11 11 10 8 9 9 10 9 9 9 8 6 4
11 12 12 12 12 13 13 14 14 15 15 16 16 16 16 16 16 16 15 15 15 14 9 13 12 13 13 13 12 12 12 13 10 11 9 9 7 8 9 10 8 11 7 7 6 6 8
11 12 12 12 12 12 13 13 14 15 15 16 16 16 16 16 16 15 15 14 14 14 10 13 12 12 12 12 12 12 11 12 10 8 9 10 7 8 9 9 7 8 5 5 4 2 2
11 11 11 11 12 12 13 13 14 15 15 16 16 16 16 15 15 15 14 14 14 10 9 13 12 11 12 11 11 11 11 11 9 8 6 6 5 6 7 4 5 3 5 3 1 2 4
11 11 11 11 11 12 12 13 14 15 15 15 15 15 15 15 15 14 14 14 10 8 13 13 12 10 10 11 11 10 10 6 7 10 10 7 6 4 5 6 5 4 5 6 6 4 8
10 10 10 11 11 11 12 13 13 14 15 15 15 15 14 14 14 14 14 10 14 13 12 9 9 10 12 9 10 9 9 8 5 6 2 7 9 5 3 3 4 5 3 4 7 8 8
9 9 10 10 11 11 12 13 13 14 14 15 15 14 14 14 14 13 13 7 11 10 9 10 10 11 11 9 9 9 9 3 5 5 7 6 9 2 2 2 2 5 5 3 0 0 1
9 9 9 10 11 11 12 13 13 14 14 15 14 13 13 13 13 13 8 9 10 7 8 8 12 11 12 10 10 10 9 4 5 4 3 6 6 3 2 2 1 2 1 4 -0 5 5
8 8 9 10 10 11 12 13 13 14 14 14 14 13 12 13 13 13 7 7 8 7 7 8 9 10 9 9 8 9 9 6 5 3 3 -2 2 4 3 2 1 0 -1 -1 1 2 4
8 8 9 9 10 11 12 12 13 13 14 14 13 10 12 12 10 2 5 7 7 6 7 6 6 7 7 6 7 8 8 5 4 4 3 0 -1 2 5 -5 -7 -4 -1 -1 4 2 -0
8 8 9 9 10 11 12 12 13 13 14 14 13 12 11 12 8 5 5 6 6 6 5 5 5 5 5 6 6 6 5 4 5 5 1 -0 1 1 5 -0 -2 -2 -3 -4 -2 -1 -0
7 8 9 9 10 10 11 11 12 13 13 13 12 8 10 9 5 4 6 4 6 6 5 5 5 5 6 5 5 5 6 5 5 5 4 3 -0 3 6 5 1 0 -2 -3 0 0 3
7 8 8 8 9 9 10 10 11 12 13 12 10 1 3 1 3 2 3 3 5 4 4 5 4 3 2 3 4 5 4 4 5 5 3 2 0 2 3 3 1 1 1 -1 0 3 4
7 7 8 8 8 9 10 10 10 11 11 12 8 6 4 2 3 3 1 2 4 4 3 4 4 3 4 2 5 4 2 3 4 3 3 -0 0 -2 -4 3 1 1 0 -1 1 2 2
7 7 7 7 8 8 9 9 10 10 11 9 7 6 6 1 0 1 1 2 3 2 2 3 2 2 3 2 1 1 1 2 2 0 1 1 0 1 2 2 2 1 -1 -0 -2 -5 -2
6 6 7 7 7 7 8 9 9 9 10 9 8 7 7 -1 -2 0 1 2 1 1 2 1 1 2 1 1 2 1 -1 -2 -2 -2 -0 -2 -2 0 0 -0 -1 -1 -8 -6 -5 -6 -3
6 6 6 6 6 7 7 7 8 8 8 9 8 8 6 -4 -1 0 1 0 0 0 0 -0 0 0 0 0 -2 -1 -1 1 -1 -2 -1 -0 1 1 -2 -2 0 1 -3 -3 -2 -3 -3
5 5 6 6 6 6 6 7 7 7 7 8 7 7 6 4 0 2 -0 -1 -4 -5 -3 -0 -0 -0 -0 -2 -3 -5 -2 -1 0 -1 -2 -2 -1 -1 -5 -1 -3 -2 -1 -2 -3 -1 -4
5 5 5 5 5 6 6 6 6 7 7 7 6 6 6 5 3 2 -0 -2 -0 -3 -7 -3 -1 -1 -1 -5 -4 -4 -3 -2 -3 -3 -4 -7 -6 -2 -3 -4 -4 -2 -2 -2 -3 -3 -2
4 4 4 5 5 5 5 5 6 6 6 6 6 6 5 5 3 3 2 1 -1 -1 -6 -2 -5 -4 -6 -6 -4 -5 -8 -7 -4 -4 -5 -5 -7 -7 -4 -5 -5 -1 -2 -3 -2 -1 -2
4 4 4 4 4 5 5 5 5 6 6 6 5 5 5 4 3 2 1 1 0 0 -0 -2 -3 -3 -3 -7 -5 -5 -6 -10 -8 -7 -6 -7 -6 -6 -4 -3 -2 -1 -0 -1 -1 -2 -2
Height
1520 1519 1519 1518 1517 1515 1514 1513 1511 1511 1509 1508 1507 1506 1504 1503 1502 1502 1502 1501 1500 1499 1500 1499 1498 1498 1500 1500 1501 1499 1498 1498 1498 1498 1497 1497 1498 1499 1502 1503 1504 1506 1508 1509 1509 1510 1510
1521 1519 1519 1519 1517 1516 1514 1513 1512 1510 1509 1508 1506 1504 1503 1503 1501 1501 1500 1499 1498 1498 1498 1497 1496 1498 1500 1501 1500 1499 1498 1498 1497 1497 1496 1497 1497 1499 1502 1504 1505 1506 1507 1508 1509 1509 1509
1521 1521 1519 1519 1518 1516 1515 1513 1511 1510 1508 1507 1506 1505 1503 1501 1500 1499 1498 1497 1497 1497 1496 1496 1496 1497 1498 1499 1498 1498 1497 1497 1496 1496 1496 1497 1498 1500 1501 1504 1505 1506 1508 1509 1510 1509 1509
1521 1521 1520 1519 1518 1517 1515 1513 1511 1510 1508 1506 1505 1503 1502 1500 1498 1497 1496 1495 1495 1495 1495 1495 1496 1496 1496 1497 1497 1497 1496 1496 1495 1495 1496 1497 1498 1499 1500 1504 1506 1509 1510 1511 1511 1510 1508
1521 1520 1520 1519 1518 1517 1515 1513 1511 1509 1507 1506 1504 1502 1500 1499 1497 1495 1494 1493 1493 1493 1494 1495 1496 1496 1496 1496 1496 1496 1495 1495 1494 1495 1496 1497 1499 1500 1502 1506 1512 1514 1512 1512 1510 1513 1512
1520 1520 1520 1518 1517 1516 1514 1512 1510 1509 1507 1505 1503 1501 1499 1497 1496 1494 1493 1492 1491 1492 1493 1494 1494 1498 1495 1494 1494 1493 1494 1494 1494 1495 1496 1498 1499 1503 1507 1509 1520 1510 1510 1513 1513 1515 1513
1520 1520 1519 1518 1516 1515 1513 1512 1510 1508 1506 1503 1501 1499 1498 1496 1494 1493 1492 1492 1494 1493 1491 1491 1492 1492 1492 1493 1493 1493 1492 1493 1494 1495 1498 1499 1504 1508 1504 1506 1507 1509 1511 1513 1513 1516 1514
1520 1518 1518 1517 1515 1514 1513 1511 1509 1507 1505 1502 1500 1498 1496 1494 1493 1492 1491 1491 1491 1492 1490 1490 1491 1491 1492 1491 1492 1492 1492 1493 1493 1497 1499 1504 1505 1506 1506 1507 1508 1510 1513 1514 1513 1515 1514
1519 1517 1517 1517 1515 1514 1512 1510 1508 1506 1504 1501 1499 1497 1495 1493 1492 1492 1490 1491 1490 1490 1490 1490 1490 1491 1491 1492 1491 1491 1491 1491 1493 1498 1500 1504 1506 1506 1506 1509 1508 1511 1512 1513 1517 1516 1517
1517 1516 1517 1516 1515 1513 1511 1509 1507 1505 1502 1500 1498 1495 1494 1493 1494 1491 1490 1490 1489 1489 1499 1493 1491 1490 1491 1490 1492 1491 1490 1492 1494 1497 1501 1504 1506 1506 1507 1506 1510 1507 1514 1514 1517 1519 1518
1516 1516 1517 1516 1514 1512 1510 1508 1506 1503 1501 1498 1496 1494 1493 1491 1491 1491 1492 1490 1489 1490 1526 1493 1491 1491 1490 1492 1493 1491 1491 1490 1494 1498 1502 1500 1506 1506 1506 1506 1509 1510 1515 1518 1524 1532 1534
1516 1516 1516 1516 1514 1512 1509 1507 1504 1502 1500 1497 1495 1493 1492 1491 1490 1491 1490 1489 1491 1505 1523 1491 1490 1490 1490 1489 1490 1490 1490 1491 1494 1498 1502 1505 1506 1507 1507 1511 1511 1515 1517 1522 1530 1530 1534
1516 1516 1516 1515 1513 1511 1509 1506 1504 1501 1498 1496 1493 1492 1491 1490 1490 1489 1489 1490 1506 1520 1492 1493 1492 1492 1492 1491 1491 1491 1492 1497 1500 1500 1500 1506 1506 1508 1508 1510 1513 1515 1518 1528 1527 1535 1512
1516 1516 1515 1514 1512 1510 1508 1505 1502 1499 1497 1494 1492 1491 1490 1489 1488 1488 1489 1493 1501 1492 1492 1494 1494 1492 1490 1493 1492 1492 1493 1496 1499 1501 1520 1508 1505 1509 1510 1512 1513 1514 1521 1527 1523 1517 1506
1516 1516 1515 1513 1511 1509 1506 1504 1501 1498 1496 1493 1491 1489 1488 1488 1488 1488 1490 1511 1499 1495 1495 1494 1493 1491 1492 1493 1494 1492 1494 1505 1499 1499 1505 1510 1497 1510 1510 1511 1514 1514 1517 1518 1540 1548 1545
1515 1515 1514 1512 1510 1508 1505 1502 1499 1497 1494 1491 1490 1488 1488 1488 1487 1488 1492 1498 1495 1496 1497 1496 1491 1492 1492 1494 1493 1493 1491 1500 1497 1499 1499 1500 1508 1511 1513 1513 1515 1515 1517 1518 1535 1525 1522
1515 1515 1513 1511 1509 1506 1503 1501 1498 1495 1492 1490 1488 1487 1487 1487 1487 1488 1501 1501 1497 1498 1498 1499 1497 1496 1496 1496 1497 1497 1495 1501 1500 1501 1501 1508 1510 1512 1512 1513 1515 1521 1526 1526 1524 1524 1515
1515 1515 1513 1511 1508 1505 1502 1499 1496 1494 1491 1489 1487 1488 1487 1486 1489 1495 1497 1497 1498 1500 1499 1500 1500 1501 1502 1502 1500 1500 1500 1504 1503 1503 1507 1509 1516 1518 1502 1519 1519 1519 1517 1519 1512 1522 1529
1516 1515 1513 1511 1507 1504 1501 1498 1495 1492 1490 1488 1486 1487 1487 1487 1494 1499 1498 1499 1499 1499 1501 1501 1503 1503 1503 1503 1506 1503 1503 1504 1502 1502 1507 1507 1514 1524 1504 1518 1518 1518 1519 1521 1519 1520 1521
1516 1515 1513 1511 1507 1504 1501 1498 1494 1491 1489 1488 1487 1489 1488 1488 1494 1497 1499 1504 1502 1502 1504 1503 1504 1503 1503 1505 1505 1505 1503 1503 1502 1501 1501 1502 1512 1507 1498 1497 1506 1511 1514 1517 1511 1516 1499
1517 1515 1513 1511 1508 1505 1502 1498 1494 1490 1487 1487 1487 1494 1495 1504 1500 1501 1502 1505 1504 1506 1504 1504 1506 1507 1510 1511 1507 1504 1504 1504 1501 1501 1502 1504 1512 1503 1498 1496 1500 1500 1500 1505 1506 1493 1487
1518 1517 1515 1512 1510 1507 1503 1499 1495 1489 1487 1487 1489 1494 1497 1500 1501 1502 1505 1510 1508 1508 1507 1505 1506 1508 1508 1511 1506 1507 1509 1507 1504 1503 1503 1506 1508 1511 1516 1495 1495 1493 1495 1496 1488 1485 1482
1520 1518 1516 1515 1512 1508 1506 1502 1497 1494 1490 1490 1493 1495 1496 1506 1505 1507 1511 1510 1510 1510 1509 1508 1509 1509 1507 1508 1507 1505 1505 1506 1506 1508 1508 1509 1507 1506 1496 1493 1491 1492 1487 1484 1489 1492 1487
1522 1520 1519 1516 1514 1512 1509 1505 1502 1498 1495 1495 1496 1496 1496 1510 1508 1510 1510 1509 1510 1511 1510 1509 1509 1509 1509 1507 1503 1499 1499 1500 1502 1502 1504 1509 1510 1508 1501 1502 1508 1488 1491 1491 1490 1489 1485
1525 1523 1520 1518 1517 1515 1512 1510 1507 1503 1501 1500 1499 1499 1499 1511 1510 1511 1510 1510 1510 1510 1511 1510 1510 1510 1507 1505 1505 1503 1502 1500 1502 1502 1502 1502 1503 1502 1512 1509 1488 1482 1489 1489 1486 1486 1482
1527 1526 1523 1522 1520 1518 1515 1512 1510 1507 1506 1504 1502 1502 1502 1504 1509 1507 1509 1509 1512 1513 1512 1509 1508 1508 1507 1506 1509 1523 1516 1505 1500 1502 1501 1501 1501 1504 1518 1506 1509 1488 1483 1483 1485 1484 1481
1530 1528 1526 1525 1523 1521 1518 1515 1513 1510 1508 1507 1505 1504 1503 1503 1504 1505 1506 1508 1508 1511 1512 1508 1506 1506 1506 1511 1516 1517 1514 1508 1514 1508 1510 1514 1515 1504 1509 1514 1498 1480 1481 1483 1494 1489 1476
1533 1532 1530 1527 1525 1523 1520 1517 1515 1513 1511 1509 1507 1504 1504 1501 1501 1501 1503 1504 1506 1507 1510 1506 1509 1507 1508 1515 1513 1515 1523 1516 1511 1504 1506 1508 1516 1517 1506 1515 1512 1476 1480 1486 1477 1473 1473
1535 1534 1531 1529 1527 1525 1522 1519 1516 1514 1512 1508 1506 1504 1503 1502 1501 1500 1500 1501 1502 1502 1503 1503 1505 1504 1505 1511 1511 1510 1513 1521 1519 1517 1501 1512 1499 1502 1495 1486 1472 1472 1471 1471 1470 1470 1469
Wind_Speed
7 8 8 8 8 9 9 9 8 7 6 6 6 7 7 7 5 5 5 5 4 4 3 2 2 2 3 2 1 6 3 2 1 1 2 3 3 3 4 4 3 2 3 3 2 2 1
6 6 7 7 8 8 9 9 9 9 8 7 7 8 8 7 7 7 7 6 5 5 5 3 3 3 3 2 2 5 2 1 1 2 2 3 2 4 6 2 2 3 4 4 2 3 2
5 6 6 7 8 8 9 9 9 9 9 9 8 8 9 9 8 7 7 7 6 5 4 3 2 3 4 4 3 2 2 2 1 2 4 4 5 3 5 3 4 4 3 2 6 7 1
5 5 6 7 8 8 9 9 10 10 10 10 9 9 10 10 10 7 7 7 6 4 2 3 3 2 2 4 4 2 3 2 1 2 4 5 6 6 3 7 4 3 4 1 1 8 4
5 5 6 7 8 8 9 10 10 10 11 11 10 10 10 10 9 7 7 6 6 6 3 4 5 4 2 3 3 2 2 2 3 4 4 4 2 3 4 5 4 5 2 1 3 3 3
4 5 6 7 8 9 10 10 11 12 12 12 11 10 9 9 8 7 6 4 3 6 6 4 4 2 4 3 3 2 0 2 3 5 4 1 2 3 3 3 4 4 2 2 4 2 3
5 5 6 7 8 9 10 11 11 12 12 12 12 10 10 9 8 6 5 2 1 3 6 3 3 2 2 2 2 1 1 3 4 3 1 3 3 4 3 1 2 4 3 2 3 1 3
6 6 6 7 8 9 10 11 12 12 13 13 12 11 10 9 7 5 4 2 4 2 2 5 5 3 3 1 1 1 1 3 3 3 2 4 3 2 6 3 3 2 2 4 3 1 0
6 6 7 7 8 9 10 11 12 13 13 13 13 11 10 8 5 4 3 2 2 2 0 1 2 2 1 1 2 1 1 4 3 4 2 5 1 3 2 2 3 2 3 2 3 5 2
5 6 7 8 8 10 11 11 12 13 14 14 12 11 10 8 4 4 2 2 2 1 4 2 0 0 1 1 1 2 2 2 3 5 4 1 1 3 1 2 4 2 1 3 2 4 3
5 6 7 8 9 10 11 12 13 14 14 14 12 10 9 6 5 4 2 1 0 1 4 1 0 1 0 1 2 1 4 2 4 5 4 3 5 3 2 1 2 2 2 3 3 4 3
5 6 7 8 9 10 12 13 13 14 14 13 11 10 8 6 5 3 2 1 1 6 5 0 0 1 1 2 1 1 2 3 5 4 4 2 1 1 2 3 3 6 4 4 3 2 1
4 5 6 8 8 10 11 13 14 14 14 13 11 9 7 6 4 3 1 2 5 4 1 1 1 3 2 2 1 2 1 2 4 3 3 2 1 1 1 4 2 3 4 3 4 3 5
3 5 6 8 9 10 12 13 14 14 15 13 11 7 5 5 3 1 3 4 2 2 2 1 1 1 1 2 0 2 1 2 1 4 3 4 5 4 2 2 6 4 5 5 6 3 3
2 5 6 8 10 12 13 14 15 15 15 14 10 5 3 5 2 2 2 4 6 4 1 2 2 0 1 1 1 2 3 3 3 4 7 4 4 1 3 1 2 3 3 2 7 1 2
2 5 7 9 11 13 14 15 15 15 14 12 8 4 1 4 1 2 4 5 1 1 1 1 2 0 2 2 1 1 1 3 1 0 2 2 2 1 2 2 4 2 1 3 3 2 5
3 5 7 10 12 13 15 15 15 15 14 11 6 2 1 4 1 2 3 3 1 2 3 3 2 2 2 3 1 2 3 2 5 2 3 3 3 1 1 5 6 1 2 3 2 3 4
4 7 9 11 13 15 16 16 15 14 13 10 3 1 2 3 2 2 2 1 2 3 4 3 3 3 3 4 2 1 3 3 5 1 1 3 4 3 4 1 3 2 4 4 4 5 3
6 8 9 12 14 15 16 16 16 14 12 11 4 1 3 2 2 1 1 2 3 4 4 5 4 4 2 2 3 2 3 2 1 2 3 3 1 4 7 3 2 2 2 2 3 2 6
7 8 10 12 13 15 17 18 17 15 12 9 2 2 5 8 6 4 3 3 3 6 3 3 2 2 2 3 1 3 3 1 2 1 3 5 2 7 9 6 4 3 4 4 3 3 5
8 10 12 14 16 17 18 19 19 15 10 5 4 2 2 2 6 5 3 2 2 4 6 8 4 5 3 1 5 2 2 5 2 2 2 2 4 4 6 6 3 6 7 7 9 12 12
11 13 14 16 17 18 19 19 19 16 8 7 4 3 5 4 3 3 5 3 1 2 3 3 4 3 2 2 3 3 4 3 5 4 1 3 3 2 3 8 9 12 6 10 16 15 14
13 14 15 16 17 19 21 22 23 23 20 11 9 8 3 7 3 3 1 0 1 2 3 6 1 2 3 1 7 16 17 14 10 2 4 1 1 4 6 2 11 10 7 6 2 3 4
14 15 15 17 19 21 22 23 24 25 27 22 16 7 3 1 3 2 1 1 2 2 2 2 3 0 2 14 18 11 9 9 9 8 11 3 3 2 6 3 4 6 3 3 4 5 4
14 15 17 18 19 20 21 22 23 24 24 21 19 11 4 2 1 1 0 1 3 4 2 3 1 4 10 8 3 5 3 2 2 1 2 7 3 3 2 3 6 2 2 1 3 6 2
15 17 18 18 18 19 20 22 22 22 22 20 20 16 6 8 3 3 2 1 1 1 4 2 3 5 5 3 3 3 3 2 3 5 3 2 1 2 2 4 5 4 3 4 4 5 4
17 17 17 17 18 19 20 21 22 22 21 19 18 17 7 2 4 4 3 3 3 2 2 3 3 1 2 2 1 3 3 3 2 3 3 1 1 5 4 4 8 4 4 1 3 5 9
15 16 17 19 19 20 20 21 21 22 21 21 18 17 12 3 5 7 6 6 5 5 3 2 3 1 3 2 3 3 2 3 1 4 4 5 4 4 3 3 7 9 3 5 5 9 10
16 16 17 18 18 19 20 20 21 21 22 22 20 19 17 5 5 8 11 11 12 8 3 4 2 3 3 3 2 2 3 1 1 3 2 2 6 4 7 6 4 10 11 12 13 13 14
Wind_Direction
25 32 19 25 29 27 27 23 17 8 3 1 356 354 352 344 331 303 292 291 308 313 322 299 278 278 292 270 249 340 336 4 79 111 149 151 161 142 144 135 119 101 157 115 113 76 13
9 29 14 11 19 19 18 18 14 7 359 349 344 345 342 331 326 305 288 282 298 298 303 295 283 270 257 253 249 360 349 24 125 128 109 161 144 142 116 92 112 123 119 116 69 35 72
16 358 17 3 4 10 8 5 7 6 0 348 340 335 335 331 324 311 299 276 295 303 298 262 252 247 250 266 230 329 344 213 91 122 106 120 128 140 130 109 114 119 109 110 20 342 5
355 349 0 357 355 357 0 358 358 358 354 351 341 333 336 332 323 316 306 289 275 282 271 231 236 256 258 226 240 282 342 206 155 131 123 124 125 116 100 122 47 67 56 59 20 354 341
334 341 343 349 347 348 351 352 350 350 348 347 342 336 336 335 331 318 313 293 269 236 261 258 253 252 240 224 239 254 335 200 153 144 129 139 161 97 109 94 23 10 208 226 317 41 318
323 324 332 340 341 342 344 346 346 345 344 343 341 335 333 334 329 325 319 310 261 235 250 261 230 247 225 209 247 254 274 165 158 145 116 154 85 71 41 85 216 211 220 239 248 339 358
305 307 325 333 338 339 341 341 342 342 340 341 340 333 331 331 327 323 322 316 288 253 222 220 177 215 169 243 253 230 281 161 141 134 134 27 74 222 229 147 95 115 134 244 264 78 311
294 302 319 327 333 336 337 339 339 340 340 339 338 333 331 329 322 321 320 272 276 210 275 234 233 236 231 253 199 229 43 166 145 167 102 25 222 140 116 105 113 107 143 256 273 57 231
290 302 314 323 331 335 337 338 339 339 339 338 336 332 329 327 316 310 338 306 287 267 191 321 210 221 219 247 199 200 104 139 99 134 161 170 155 149 115 124 137 171 192 218 227 328 43
294 306 313 324 333 336 339 339 339 338 339 339 336 332 328 325 315 314 297 303 291 294 64 279 248 221 247 170 61 39 94 145 52 179 136 149 126 159 136 198 134 253 123 113 50 40 258
304 311 317 324 333 338 340 342 342 341 340 339 338 330 327 319 305 301 293 280 313 71 7 231 87 159 27 146 127 30 45 105 151 147 116 234 158 164 181 218 187 188 85 91 96 87 41
299 314 322 327 335 340 341 342 343 342 341 339 336 330 327 318 300 298 273 211 113 45 260 85 108 290 94 47 65 134 140 97 105 106 51 86 69 59 119 68 60 143 87 57 60 98 22
300 315 323 326 335 338 339 340 343 343 342 340 334 328 332 327 306 295 220 157 36 134 337 352 343 28 356 334 18 38 54 26 167 100 222 84 169 79 113 99 36 85 72 327 343 7 224
309 322 330 329 333 337 337 340 342 342 343 342 334 324 324 334 317 244 158 55 193 234 224 359 302 301 253 15 289 355 55 286 227 81 100 166 299 165 0 154 182 179 150 163 219 225 273
327 335 335 334 336 338 341 343 343 342 342 341 330 313 313 340 332 166 153 76 215 198 179 328 268 310 305 43 237 10 205 184 201 184 170 150 257 118 57 109 87 183 201 127 101 53 20
360 346 340 342 342 343 345 346 345 342 340 339 329 293 292 336 329 161 80 225 180 23 17 350 238 120 258 275 329 4 205 249 181 131 141 180 344 359 105 96 41 150 145 74 8 272 258
14 355 347 348 348 346 345 345 345 344 341 339 325 264 314 338 248 143 159 226 15 30 29 9 328 313 276 337 330 283 335 15 6 47 75 129 106 263 100 196 183 71 321 36 118 156 213
21 5 359 357 354 352 350 347 344 343 347 340 308 15 327 342 43 37 111 125 34 23 26 44 86 46 19 1 307 299 342 13 3 109 38 4 149 232 228 297 166 124 193 153 146 253 226
28 14 7 5 3 1 357 354 349 343 339 344 320 320 5 5 109 29 241 80 70 43 40 28 45 40 28 40 0 25 16 306 34 48 171 210 332 349 326 1 27 221 212 132 117 107 202
31 21 20 20 19 15 8 1 358 352 347 348 342 29 43 63 58 101 35 1 72 36 62 54 51 82 34 26 353 291 339 359 318 177 157 160 170 184 240 219 135 200 204 200 166 169 242
38 39 37 34 29 22 17 8 2 358 354 352 49 81 79 7 28 69 71 345 29 13 17 32 52 61 105 24 329 269 23 337 253 209 111 123 228 225 258 271 213 222 217 192 203 236 247
51 50 44 38 33 29 26 26 23 20 27 59 71 91 89 65 30 62 12 6 66 336 25 352 92 327 257 206 224 269 32 241 246 26 71 31 279 62 284 255 255 274 252 227 236 251 265
59 54 47 41 38 35 34 35 38 43 56 63 61 68 79 8 30 67 333 20 333 313 65 71 48 302 263 208 288 277 269 255 276 21 357 284 260 347 280 69 326 302 246 231 206 218 188
62 56 50 45 41 38 36 37 38 40 45 48 48 63 79 324 80 127 1 360 352 17 302 320 360 282 313 308 300 281 270 261 253 257 209 204 124 197 283 4 273 245 207 171 209 258 240
62 57 52 47 43 41 39 38 38 40 42 41 44 44 57 88 92 254 102 38 333 308 289 269 270 308 318 330 18 357 352 34 42 63 92 218 191 256 260 217 297 83 326 73 53 287 231
59 54 51 47 43 41 39 39 39 38 37 36 41 39 47 126 232 169 147 127 195 295 328 241 275 321 336 53 57 127 226 230 303 335 51 82 237 177 16 279 262 226 245 226 165 275 235
55 51 48 45 42 39 37 35 34 32 31 31 32 30 31 50 183 186 167 180 168 185 208 286 327 316 16 76 112 180 242 188 253 238 219 333 66 219 244 251 283 222 217 164 89 247 221
51 46 42 38 36 34 33 30 26 23 20 18 18 16 16 321 259 226 225 199 189 200 150 189 18 284 42 97 149 220 153 237 265 254 203 171 151 212 150 215 279 170 146 153 220 281 249
46 41 38 34 30 27 25 23 18 14 11 8 4 356 350 326 279 257 256 245 236 235 239 202 197 181 197 85 198 161 226 86 167 269 32 303 190 197 179 219 221 199 243 278 286 266 254